| time (UTC) | temp C | wind direction | speed KPH | gust KPH | rain 1hr cm | rain 24hr cm | rain mn cm | humidity % | barometer mb |
| 20260509013506 | 12 | 292 | 4.8 | 9.7 | 0.00 | 0.10 | 0.10 | 88 | 1011.7 |
| 20260509013006 | 12 | 270 | 6.4 | 8.0 | 0.00 | 0.08 | 0.08 | 88 | 1011.7 |
| 20260509012506 | 12 | 270 | 3.2 | 8.0 | 0.00 | 0.08 | 0.08 | 87 | 1011.4 |
| 20260509012007 | 12 | 270 | 1.6 | 8.0 | 0.00 | 0.05 | 0.05 | 87 | 1011.4 |
| 20260509011503 | 12 | 247 | 1.6 | 4.8 | 0.00 | 0.05 | 0.05 | 86 | 1011.4 |
| 20260509011005 | 12 | 247 | 0.0 | 4.8 | 0.00 | 0.05 | 0.05 | 86 | 1011.4 |
| 20260509010507 | 12 | 247 | 0.0 | 4.8 | 0.00 | 0.05 | 0.05 | 85 | 1011.4 |
| 20260509005501 | 12 | 247 | 1.6 | 6.4 | 0.00 | 0.03 | 0.03 | 84 | 1011.4 |
| 20260509004504 | 12 | 270 | 4.8 | 11.3 | 0.00 | 0.03 | 0.03 | 82 | 1011.7 |
| 20260509004001 | 12 | 292 | 6.4 | 11.3 | 0.00 | 0.03 | 0.03 | 80 | 1011.4 |
| 20260509003503 | 13 | 270 | 4.8 | 11.3 | 0.00 | 0.03 | 0.03 | 80 | 1011.7 |
| 20260509003005 | 13 | 292 | 4.8 | 14.5 | 0.00 | 0.00 | 0.00 | 79 | 1011.7 |
| 20260509002501 | 13 | 270 | 6.4 | 12.9 | 0.00 | 0.00 | 0.00 | 78 | 1011.4 |
| 20260509002004 | 13 | 292 | 6.4 | 11.3 | 0.00 | 0.00 | 0.00 | 77 | 1011.4 |
| 20260509001505 | 13 | 270 | 8.0 | 17.7 | 0.00 | 0.00 | 0.00 | 76 | 1011.4 |
| 20260509001001 | 13 | 292 | 6.4 | 17.7 | 0.00 | 0.00 | 0.00 | 75 | 1011.4 |
| 20260509000504 | 13 | 315 | 8.0 | 17.7 | 0.00 | 0.00 | 0.00 | 74 | 1011.4 |
| 20260509000006 | 13 | 270 | 6.4 | 17.7 | 0.00 | 0.00 | 0.00 | 72 | 1011.4 |
| 20260508235502 | 14 | 292 | 6.4 | 12.9 | 0.00 | 0.00 | 0.00 | 71 | 1011.4 |
| 20260508234505 | 15 | 315 | 6.4 | 20.9 | 0.00 | 0.00 | 0.00 | 68 | 1011.4 |
| 20260508234006 | 15 | 270 | 11.3 | 16.1 | 0.00 | 0.00 | 0.00 | 68 | 1011.4 |
| 20260508233507 | 15 | 270 | 6.4 | 8.0 | 0.00 | 0.00 | 0.00 | 67 | 1011.4 |
| 20260508233003 | 15 | 270 | 3.2 | 9.7 | 0.00 | 0.00 | 0.00 | 67 | 1011.4 |
| 20260508232513 | 15 | 270 | 3.2 | 8.0 | 0.00 | 0.00 | 0.00 | 67 | 1011.0 |
| 20260508232002 | 15 | 270 | 1.6 | 8.0 | 0.00 | 0.00 | 0.00 | 66 | 1011.0 |
| 20260508231504 | 15 | 270 | 4.8 | 12.9 | 0.00 | 0.00 | 0.00 | 66 | 1011.4 |
| 20260508230507 | 15 | 270 | 4.8 | 9.7 | 0.00 | 0.00 | 0.00 | 64 | 1011.4 |
| 20260508230002 | 16 | 270 | 6.4 | 8.0 | 0.00 | 0.00 | 0.00 | 62 | 1011.4 |
| 20260508225504 | 16 | 270 | 4.8 | 8.0 | 0.00 | 0.00 | 0.00 | 61 | 1011.0 |
| 20260508225006 | 16 | 225 | 0.0 | 8.0 | 0.00 | 0.00 | 0.00 | 59 | 1011.0 |
| 20260508224502 | 16 | 247 | 1.6 | 6.4 | 0.00 | 0.00 | 0.00 | 58 | 1011.0 |
| 20260508223504 | 16 | 270 | 3.2 | 6.4 | 0.00 | 0.00 | 0.00 | 57 | 1010.7 |
| 20260508223007 | 16 | 202 | 0.0 | 12.9 | 0.00 | 0.00 | 0.00 | 57 | 1011.0 |
| 20260508222503 | 16 | 225 | 1.6 | 12.9 | 0.00 | 0.00 | 0.00 | 57 | 1010.7 |
| 20260508222005 | 16 | 270 | 3.2 | 6.4 | 0.00 | 0.00 | 0.00 | 56 | 1010.7 |
| 20260508221507 | 16 | 180 | 3.2 | 9.7 | 0.00 | 0.00 | 0.00 | 56 | 1010.4 |
| 20260508221003 | 16 | 202 | 4.8 | 9.7 | 0.00 | 0.00 | 0.00 | 56 | 1010.7 |
| 20260508220505 | 16 | 202 | 3.2 | 8.0 | 0.00 | 0.00 | 0.00 | 56 | 1010.7 |
| 20260508220001 | 17 | 225 | 1.6 | 6.4 | 0.00 | 0.00 | 0.00 | 56 | 1010.7 |
| 20260508215004 | 17 | 247 | 1.6 | 6.4 | 0.00 | 0.00 | 0.00 | 55 | 1010.7 |
| 20260508214506 | 17 | 202 | 1.6 | 9.7 | 0.00 | 0.00 | 0.00 | 55 | 1010.7 |
| 20260508214002 | 17 | 202 | 1.6 | 6.4 | 0.00 | 0.00 | 0.00 | 55 | 1010.7 |
| 20260508213504 | 17 | 202 | 3.2 | 4.8 | 0.00 | 0.00 | 0.00 | 55 | 1010.7 |
| 20260508213006 | 17 | 225 | 0.0 | 4.8 | 0.00 | 0.00 | 0.00 | 54 | 1010.7 |
| 20260508212509 | 17 | 202 | 1.6 | 4.8 | 0.00 | 0.00 | 0.00 | 54 | 1010.7 |
| 20260508211507 | 17 | 270 | 1.6 | 6.4 | 0.00 | 0.00 | 0.00 | 54 | 1011.0 |
| 20260508211007 | 17 | 180 | 0.0 | 6.4 | 0.00 | 0.00 | 0.00 | 54 | 1011.0 |
| 20260508210503 | 17 | 247 | 0.0 | 3.2 | 0.00 | 0.00 | 0.00 | 54 | 1011.0 |
| 20260508210005 | 17 | 247 | 0.0 | 9.7 | 0.00 | 0.00 | 0.00 | 53 | 1011.0 |
| 20260508205505 | 17 | 225 | 1.6 | 9.7 | 0.00 | 0.00 | 0.00 | 53 | 1011.4 |
| 20260508205007 | 17 | 247 | 6.4 | 9.7 | 0.00 | 0.00 | 0.00 | 53 | 1011.4 |
| 20260508204503 | 17 | 247 | 4.8 | 19.3 | 0.00 | 0.00 | 0.00 | 52 | 1011.4 |
| 20260508204005 | 17 | 225 | 8.0 | 19.3 | 0.00 | 0.00 | 0.00 | 52 | 1011.4 |
| 20260508203507 | 17 | 270 | 3.2 | 19.3 | 0.00 | 0.00 | 0.00 | 52 | 1011.4 |
| 20260508202504 | 17 | 247 | 11.3 | 16.1 | 0.00 | 0.00 | 0.00 | 51 | 1011.4 |
| 20260508202006 | 17 | 270 | 6.4 | 12.9 | 0.00 | 0.00 | 0.00 | 51 | 1011.7 |
| 20260508201502 | 17 | 270 | 8.0 | 16.1 | 0.00 | 0.00 | 0.00 | 51 | 1011.4 |
| 20260508200505 | 17 | 270 | 6.4 | 12.9 | 0.00 | 0.00 | 0.00 | 51 | 1011.7 |
| 20260508200001 | 17 | 247 | 6.4 | 11.3 | 0.00 | 0.00 | 0.00 | 51 | 1012.1 |
| 20260508195503 | 17 | 247 | 1.6 | 11.3 | 0.00 | 0.00 | 0.00 | 51 | 1012.1 |
| 20260508195006 | 17 | 270 | 1.6 | 11.3 | 0.00 | 0.00 | 0.00 | 50 | 1012.1 |
| 20260508194506 | 17 | 247 | 3.2 | 14.5 | 0.00 | 0.00 | 0.00 | 50 | 1012.1 |
| 20260508194002 | 17 | 225 | 4.8 | 14.5 | 0.00 | 0.00 | 0.00 | 50 | 1012.1 |
| 20260508193504 | 17 | 247 | 8.0 | 14.5 | 0.00 | 0.00 | 0.00 | 50 | 1012.1 |
| 20260508192005 | 17 | 270 | 4.8 | 11.3 | 0.00 | 0.00 | 0.00 | 49 | 1012.1 |
| 20260508191002 | 17 | 270 | 3.2 | 19.3 | 0.00 | 0.00 | 0.00 | 48 | 1012.1 |
| 20260508190504 | 17 | 225 | 6.4 | 19.3 | 0.00 | 0.00 | 0.00 | 47 | 1012.4 |
| 20260508190006 | 17 | 247 | 6.4 | 19.3 | 0.00 | 0.00 | 0.00 | 47 | 1012.4 |
| 20260508185003 | 18 | 337 | 9.7 | 19.3 | 0.00 | 0.00 | 0.00 | 46 | 1012.4 |
| 20260508184505 | 18 | 180 | 8.0 | 22.5 | 0.00 | 0.00 | 0.00 | 47 | 1012.4 |
| 20260508183502 | 18 | 247 | 8.0 | 20.9 | 0.00 | 0.00 | 0.00 | 47 | 1012.4 |
| 20260508183004 | 18 | 202 | 9.7 | 22.5 | 0.00 | 0.00 | 0.00 | 48 | 1012.4 |
| 20260508182501 | 18 | 225 | 9.7 | 22.5 | 0.00 | 0.00 | 0.00 | 49 | 1012.7 |
| 20260508181502 | 17 | 247 | 4.8 | 25.7 | 0.00 | 0.00 | 0.00 | 49 | 1012.7 |
| 20260508181017 | 18 | 247 | 9.7 | 25.7 | 0.00 | 0.00 | 0.00 | 49 | 1012.7 |
| 20260508180502 | 18 | 202 | 12.9 | 25.7 | 0.00 | 0.00 | 0.00 | 49 | 1012.7 |
| 20260508180004 | 18 | 225 | 6.4 | 17.7 | 0.00 | 0.00 | 0.00 | 49 | 1013.1 |
| 20260508175506 | 18 | 202 | 8.0 | 17.7 | 0.00 | 0.00 | 0.00 | 50 | 1013.1 |
| 20260508174004 | 17 | 247 | 8.0 | 20.9 | 0.00 | 0.00 | 0.00 | 50 | 1013.1 |
| 20260508173505 | 17 | 270 | 6.4 | 14.5 | 0.00 | 0.00 | 0.00 | 50 | 1013.4 |
| 20260508173007 | 17 | 270 | 6.4 | 27.4 | 0.00 | 0.00 | 0.00 | 50 | 1013.4 |
| 20260508172503 | 17 | 270 | 12.9 | 20.9 | 0.00 | 0.00 | 0.00 | 51 | 1013.8 |
| 20260508172004 | 17 | 270 | 12.9 | 19.3 | 0.00 | 0.00 | 0.00 | 51 | 1013.8 |
| 20260508171506 | 17 | 292 | 4.8 | 22.5 | 0.00 | 0.00 | 0.00 | 51 | 1013.8 |
| 20260508171002 | 17 | 270 | 4.8 | 22.5 | 0.00 | 0.00 | 0.00 | 51 | 1013.8 |
| 20260508170505 | 16 | 180 | 4.8 | 22.5 | 0.00 | 0.00 | 0.00 | 50 | 1014.1 |
| 20260508170001 | 17 | 225 | 9.7 | 29.0 | 0.00 | 0.00 | 0.00 | 49 | 1014.1 |
| 20260508165503 | 17 | 202 | 11.3 | 29.0 | 0.00 | 0.00 | 0.00 | 49 | 1014.1 |
| 20260508165005 | 17 | 247 | 8.0 | 19.3 | 0.00 | 0.00 | 0.00 | 49 | 1014.1 |
| 20260508164507 | 17 | 247 | 12.9 | 27.4 | 0.00 | 0.00 | 0.00 | 49 | 1014.1 |
| 20260508164003 | 17 | 225 | 9.7 | 27.4 | 0.00 | 0.00 | 0.00 | 49 | 1014.1 |
| 20260508163505 | 17 | 202 | 8.0 | 27.4 | 0.00 | 0.00 | 0.00 | 49 | 1014.1 |
| 20260508163001 | 17 | 247 | 9.7 | 27.4 | 0.00 | 0.00 | 0.00 | 50 | 1014.1 |
| 20260508162504 | 17 | 202 | 9.7 | 27.4 | 0.00 | 0.00 | 0.00 | 50 | 1014.4 |
| 20260508162006 | 17 | 270 | 12.9 | 24.1 | 0.00 | 0.00 | 0.00 | 50 | 1014.1 |
| 20260508161508 | 17 | 202 | 8.0 | 29.0 | 0.00 | 0.00 | 0.00 | 50 | 1014.4 |
| 20260508161003 | 17 | 247 | 9.7 | 29.0 | 0.00 | 0.00 | 0.00 | 50 | 1014.4 |
| 20260508160505 | 16 | 270 | 8.0 | 29.0 | 0.00 | 0.00 | 0.00 | 50 | 1014.4 |
| 20260508160002 | 16 | 247 | 16.1 | 33.8 | 0.00 | 0.00 | 0.00 | 51 | 1014.4 |
| 20260508155504 | 16 | 247 | 9.7 | 33.8 | 0.00 | 0.00 | 0.00 | 51 | 1014.4 |
| 20260508155005 | 16 | 270 | 9.7 | 22.5 | 0.00 | 0.00 | 0.00 | 51 | 1014.8 |
| 20260508154506 | 16 | 270 | 14.5 | 29.0 | 0.00 | 0.00 | 0.00 | 51 | 1014.4 |
| 20260508153503 | 16 | 225 | 14.5 | 25.7 | 0.00 | 0.00 | 0.00 | 51 | 1014.4 |
| 20260508153005 | 16 | 270 | 9.7 | 30.6 | 0.00 | 0.00 | 0.00 | 51 | 1014.4 |
| 20260508152502 | 16 | 270 | 16.1 | 29.0 | 0.00 | 0.00 | 0.00 | 51 | 1014.4 |
| 20260508152004 | 16 | 247 | 17.7 | 29.0 | 0.00 | 0.00 | 0.00 | 51 | 1014.4 |
| 20260508151506 | 16 | 292 | 24.1 | 38.6 | 0.00 | 0.00 | 0.00 | 52 | 1014.1 |
| 20260508151002 | 16 | 247 | 11.3 | 27.4 | 0.00 | 0.00 | 0.00 | 52 | 1014.8 |
| 20260508150504 | 16 | 270 | 16.1 | 27.4 | 0.00 | 0.00 | 0.00 | 52 | 1014.8 |
| 20260508150006 | 16 | 247 | 16.1 | 30.6 | 0.00 | 0.00 | 0.00 | 53 | 1014.8 |
| 20260508145002 | 15 | 247 | 8.0 | 20.9 | 0.00 | 0.00 | 0.00 | 53 | 1014.8 |
| 20260508144505 | 15 | 247 | 6.4 | 24.1 | 0.00 | 0.00 | 0.00 | 53 | 1014.8 |
| 20260508144007 | 15 | 270 | 6.4 | 24.1 | 0.00 | 0.00 | 0.00 | 54 | 1014.8 |
| 20260508143503 | 15 | 270 | 9.7 | 22.5 | 0.00 | 0.00 | 0.00 | 54 | 1014.8 |
| 20260508143005 | 14 | 157 | 8.0 | 24.1 | 0.00 | 0.00 | 0.00 | 55 | 1014.8 |
| 20260508142507 | 14 | 247 | 3.2 | 17.7 | 0.00 | 0.00 | 0.00 | 55 | 1014.8 |
| 20260508142003 | 14 | 247 | 9.7 | 17.7 | 0.00 | 0.00 | 0.00 | 55 | 1014.8 |
| 20260508141006 | 14 | 180 | 6.4 | 17.7 | 0.00 | 0.00 | 0.00 | 54 | 1015.1 |
| 20260508140502 | 14 | 202 | 9.7 | 17.7 | 0.00 | 0.00 | 0.00 | 54 | 1015.1 |
| 20260508140005 | 14 | 202 | 6.4 | 22.5 | 0.00 | 0.00 | 0.00 | 55 | 1015.4 |
| 20260508135506 | 13 | 225 | 6.4 | 17.7 | 0.00 | 0.00 | 0.00 | 55 | 1015.4 |
| 20260508135007 | 13 | 225 | 6.4 | 17.7 | 0.00 | 0.00 | 0.00 | 56 | 1015.4 |
| 20260508134508 | 13 | 225 | 6.4 | 17.7 | 0.00 | 0.00 | 0.00 | 56 | 1015.4 |
| 20260508134003 | 13 | 180 | 6.4 | 17.7 | 0.00 | 0.00 | 0.00 | 56 | 1015.4 |
| 20260508133505 | 13 | 270 | 9.7 | 17.7 | 0.00 | 0.00 | 0.00 | 56 | 1015.4 |
| 20260508132004 | 12 | 270 | 11.3 | 20.9 | 0.00 | 0.00 | 0.00 | 57 | 1015.4 |
| 20260508131506 | 12 | 202 | 9.7 | 20.9 | 0.00 | 0.00 | 0.00 | 57 | 1015.4 |
| 20260508131002 | 12 | 270 | 8.0 | 20.9 | 0.00 | 0.00 | 0.00 | 58 | 1015.4 |
| 20260508130504 | 12 | 225 | 6.4 | 20.9 | 0.00 | 0.00 | 0.00 | 58 | 1015.4 |
| 20260508130007 | 12 | 270 | 9.7 | 27.4 | 0.00 | 0.00 | 0.00 | 58 | 1015.4 |
| 20260508125504 | 12 | 247 | 6.4 | 19.3 | 0.00 | 0.00 | 0.00 | 59 | 1015.4 |
| 20260508125007 | 12 | 202 | 3.2 | 19.3 | 0.00 | 0.00 | 0.00 | 59 | 1015.4 |
| 20260508124005 | 11 | 225 | 4.8 | 17.7 | 0.00 | 0.00 | 0.00 | 61 | 1015.1 |
| 20260508123507 | 11 | 247 | 4.8 | 17.7 | 0.00 | 0.00 | 0.00 | 61 | 1015.4 |
| 20260508122006 | 11 | 247 | 4.8 | 16.1 | 0.00 | 0.00 | 0.00 | 62 | 1015.1 |
| 20260508121503 | 10 | 247 | 4.8 | 14.5 | 0.00 | 0.00 | 0.00 | 63 | 1015.1 |
| 20260508121005 | 10 | 157 | 3.2 | 14.5 | 0.00 | 0.00 | 0.00 | 64 | 1015.1 |
| 20260508120508 | 10 | 247 | 3.2 | 14.5 | 0.00 | 0.00 | 0.00 | 65 | 1015.1 |
| 20260508120004 | 10 | 247 | 8.0 | 12.9 | 0.00 | 0.00 | 0.00 | 66 | 1015.1 |
| 20260508115507 | 10 | 202 | 3.2 | 12.9 | 0.00 | 0.00 | 0.00 | 66 | 1015.1 |
| 20260508114504 | 9 | 180 | 3.2 | 8.0 | 0.00 | 0.00 | 0.00 | 68 | 1015.1 |
| 20260508114001 | 8 | 225 | 4.8 | 8.0 | 0.00 | 0.00 | 0.00 | 69 | 1015.1 |
| 20260508113005 | 8 | 247 | 3.2 | 8.0 | 0.00 | 0.00 | 0.00 | 69 | 1015.1 |
| 20260508112502 | 8 | 247 | 3.2 | 8.0 | 0.00 | 0.00 | 0.00 | 70 | 1014.8 |
| 20260508111506 | 8 | 247 | 1.6 | 8.0 | 0.00 | 0.00 | 0.00 | 69 | 1014.8 |
| 20260508111003 | 8 | 270 | 1.6 | 8.0 | 0.00 | 0.00 | 0.00 | 69 | 1014.8 |
| 20260508110505 | 8 | 202 | 3.2 | 8.0 | 0.00 | 0.00 | 0.00 | 69 | 1014.8 |
| 20260508110008 | 8 | 225 | 3.2 | 12.9 | 0.00 | 0.00 | 0.00 | 68 | 1014.8 |
| 20260508105501 | 8 | 202 | 3.2 | 12.9 | 0.00 | 0.00 | 0.00 | 67 | 1014.8 |
| 20260508105004 | 8 | 225 | 4.8 | 12.9 | 0.00 | 0.00 | 0.00 | 67 | 1014.8 |
| 20260508104506 | 8 | 292 | 4.8 | 11.3 | 0.00 | 0.00 | 0.00 | 66 | 1014.8 |
| 20260508104007 | 8 | 247 | 4.8 | 9.7 | 0.00 | 0.00 | 0.00 | 66 | 1014.8 |
| 20260508103504 | 9 | 247 | 3.2 | 9.7 | 0.00 | 0.00 | 0.00 | 66 | 1014.8 |
| 20260508103007 | 9 | 225 | 3.2 | 14.5 | 0.00 | 0.00 | 0.00 | 66 | 1014.8 |
| 20260508102503 | 8 | 247 | 3.2 | 11.3 | 0.00 | 0.00 | 0.00 | 66 | 1014.8 |
| 20260508101506 | 8 | 292 | 3.2 | 11.3 | 0.00 | 0.00 | 0.00 | 66 | 1014.8 |
| 20260508101002 | 8 | 225 | 3.2 | 11.3 | 0.00 | 0.00 | 0.00 | 67 | 1014.8 |
| 20260508100505 | 8 | 247 | 3.2 | 9.7 | 0.00 | 0.00 | 0.00 | 67 | 1014.4 |
| 20260508095502 | 8 | 225 | 3.2 | 9.7 | 0.00 | 0.00 | 0.00 | 68 | 1014.8 |
| 20260508095005 | 8 | 202 | 1.6 | 4.8 | 0.00 | 0.00 | 0.00 | 69 | 1014.8 |
| 20260508094507 | 8 | 247 | 1.6 | 6.4 | 0.00 | 0.00 | 0.00 | 69 | 1014.8 |
| 20260508094003 | 8 | 247 | 3.2 | 6.4 | 0.00 | 0.00 | 0.00 | 70 | 1014.8 |
| 20260508093506 | 8 | 292 | 0.0 | 4.8 | 0.00 | 0.00 | 0.00 | 70 | 1014.8 |
| 20260508093002 | 8 | 247 | 0.0 | 6.4 | 0.00 | 0.00 | 0.00 | 70 | 1014.8 |
| 20260508092005 | 7 | 202 | 3.2 | 6.4 | 0.00 | 0.00 | 0.00 | 72 | 1014.8 |
| 20260508091507 | 7 | 225 | 1.6 | 6.4 | 0.00 | 0.00 | 0.00 | 73 | 1014.8 |
| 20260508091003 | 7 | 202 | 1.6 | 6.4 | 0.00 | 0.00 | 0.00 | 73 | 1014.8 |
| 20260508090007 | 7 | 225 | 0.0 | 3.2 | 0.00 | 0.00 | 0.00 | 73 | 1014.8 |
| 20260508085503 | 7 | 225 | 0.0 | 0.0 | 0.00 | 0.00 | 0.00 | 72 | 1014.8 |
| 20260508085004 | 7 | 225 | 0.0 | 0.0 | 0.00 | 0.00 | 0.00 | 72 | 1015.1 |
| 20260508084506 | 7 | 225 | 0.0 | 0.0 | 0.00 | 0.00 | 0.00 | 71 | 1014.8 |
| 20260508084008 | 7 | 225 | 0.0 | 0.0 | 0.00 | 0.00 | 0.00 | 71 | 1014.8 |
| 20260508083503 | 8 | 225 | 0.0 | 0.0 | 0.00 | 0.00 | 0.00 | 70 | 1015.1 |
| 20260508082507 | 8 | 270 | 1.6 | 8.0 | 0.00 | 0.00 | 0.00 | 70 | 1015.1 |
| 20260508082003 | 7 | 247 | 4.8 | 8.0 | 0.00 | 0.00 | 0.00 | 71 | 1014.8 |
| 20260508081506 | 7 | 247 | 1.6 | 6.4 | 0.00 | 0.00 | 0.00 | 71 | 1014.8 |
| 20260508081003 | 7 | 225 | 3.2 | 6.4 | 0.00 | 0.00 | 0.00 | 71 | 1014.8 |
| 20260508080506 | 7 | 247 | 1.6 | 4.8 | 0.00 | 0.00 | 0.00 | 71 | 1014.8 |
| 20260508080002 | 7 | 247 | 0.0 | 9.7 | 0.00 | 0.00 | 0.00 | 71 | 1014.8 |
| 20260508075505 | 7 | 247 | 3.2 | 6.4 | 0.00 | 0.00 | 0.00 | 71 | 1014.8 |
| 20260508075007 | 7 | 247 | 3.2 | 6.4 | 0.00 | 0.00 | 0.00 | 71 | 1015.1 |
| 20260508074504 | 7 | 225 | 3.2 | 6.4 | 0.00 | 0.00 | 0.00 | 71 | 1015.1 |
| 20260508074006 | 7 | 247 | 1.6 | 4.8 | 0.00 | 0.00 | 0.00 | 70 | 1015.1 |
| 20260508073503 | 7 | 247 | 0.0 | 4.8 | 0.00 | 0.00 | 0.00 | 70 | 1014.8 |
| 20260508073005 | 7 | 247 | 0.0 | 8.0 | 0.00 | 0.00 | 0.00 | 70 | 1014.8 |
| 20260508072506 | 7 | 247 | 1.6 | 6.4 | 0.00 | 0.00 | 0.00 | 70 | 1014.8 |
| 20260508072002 | 7 | 270 | 0.0 | 3.2 | 0.00 | 0.00 | 0.00 | 70 | 1015.1 |
| 20260508071505 | 7 | 247 | 0.0 | 6.4 | 0.00 | 0.00 | 0.00 | 69 | 1014.8 |
| 20260508071001 | 7 | 247 | 1.6 | 6.4 | 0.00 | 0.00 | 0.00 | 69 | 1015.1 |
| 20260508070504 | 7 | 247 | 3.2 | 6.4 | 0.00 | 0.00 | 0.00 | 68 | 1014.8 |
| 20260508070006 | 7 | 247 | 0.0 | 6.4 | 0.00 | 0.00 | 0.00 | 68 | 1015.1 |
| 20260508065503 | 7 | 247 | 0.0 | 6.4 | 0.00 | 0.00 | 0.00 | 67 | 1015.4 |
| 20260508065006 | 8 | 247 | 1.6 | 4.8 | 0.00 | 0.00 | 0.00 | 67 | 1015.1 |
| 20260508064502 | 8 | 202 | 0.0 | 6.4 | 0.00 | 0.00 | 0.00 | 67 | 1015.1 |
| 20260508063005 | 8 | 247 | 1.6 | 8.0 | 0.00 | 0.00 | 0.00 | 66 | 1015.1 |
| 20260508062502 | 8 | 247 | 3.2 | 8.0 | 0.00 | 0.00 | 0.00 | 66 | 1015.4 |
| 20260508062004 | 8 | 225 | 0.0 | 4.8 | 0.00 | 0.00 | 0.00 | 66 | 1015.4 |
| 20260508061007 | 8 | 225 | 1.6 | 6.4 | 0.00 | 0.00 | 0.00 | 66 | 1015.1 |
| 20260508060005 | 8 | 225 | 1.6 | 6.4 | 0.00 | 0.00 | 0.00 | 65 | 1015.4 |
| 20260508054504 | 8 | 247 | 0.0 | 8.0 | 0.00 | 0.00 | 0.00 | 64 | 1015.4 |
| 20260508054005 | 8 | 270 | 1.6 | 8.0 | 0.00 | 0.00 | 0.00 | 63 | 1015.4 |
| 20260508053003 | 8 | 202 | 1.6 | 8.0 | 0.00 | 0.00 | 0.00 | 62 | 1015.8 |
| 20260508052505 | 8 | 225 | 3.2 | 8.0 | 0.00 | 0.00 | 0.00 | 62 | 1015.4 |
| 20260508052002 | 8 | 225 | 3.2 | 8.0 | 0.00 | 0.00 | 0.00 | 62 | 1015.4 |
| 20260508051004 | 9 | 225 | 1.6 | 4.8 | 0.00 | 0.00 | 0.00 | 61 | 1015.4 |
| 20260508050507 | 9 | 202 | 1.6 | 4.8 | 0.00 | 0.00 | 0.00 | 60 | 1015.4 |
| 20260508050003 | 9 | 247 | 1.6 | 8.0 | 0.00 | 0.00 | 0.00 | 60 | 1015.4 |
| 20260508045506 | 9 | 202 | 3.2 | 8.0 | 0.00 | 0.00 | 0.00 | 60 | 1015.4 |
| 20260508044004 | 9 | 225 | 1.6 | 8.0 | 0.00 | 0.00 | 0.00 | 60 | 1015.8 |
| 20260508043507 | 9 | 247 | 4.8 | 8.0 | 0.00 | 0.00 | 0.00 | 60 | 1015.4 |
| 20260508043003 | 9 | 202 | 0.0 | 8.0 | 0.00 | 0.00 | 0.00 | 60 | 1015.4 |
| 20260508042505 | 9 | 247 | 0.0 | 8.0 | 0.00 | 0.00 | 0.00 | 61 | 1015.4 |
| 20260508042002 | 9 | 247 | 1.6 | 6.4 | 0.00 | 0.00 | 0.00 | 61 | 1015.4 |
| 20260508041505 | 9 | 202 | 1.6 | 8.0 | 0.00 | 0.00 | 0.00 | 61 | 1015.4 |
| 20260508041006 | 9 | 225 | 3.2 | 8.0 | 0.00 | 0.00 | 0.00 | 61 | 1015.4 |
| 20260508040502 | 9 | 247 | 3.2 | 8.0 | 0.00 | 0.00 | 0.00 | 61 | 1015.4 |
| 20260508040010 | 9 | 202 | 3.2 | 6.4 | 0.00 | 0.00 | 0.00 | 61 | 1015.4 |
| 20260508035506 | 9 | 202 | 1.6 | 6.4 | 0.00 | 0.00 | 0.00 | 61 | 1015.4 |
| 20260508035003 | 9 | 202 | 3.2 | 6.4 | 0.00 | 0.00 | 0.00 | 61 | 1015.1 |
| 20260508034505 | 9 | 202 | 0.0 | 6.4 | 0.00 | 0.00 | 0.00 | 61 | 1015.1 |
| 20260508034002 | 9 | 202 | 1.6 | 4.8 | 0.00 | 0.00 | 0.00 | 61 | 1015.1 |
| 20260508033505 | 9 | 225 | 0.0 | 3.2 | 0.00 | 0.00 | 0.00 | 61 | 1015.1 |
| 20260508033008 | 9 | 225 | 0.0 | 3.2 | 0.00 | 0.00 | 0.00 | 60 | 1015.1 |
| 20260508032504 | 9 | 225 | 1.6 | 3.2 | 0.00 | 0.00 | 0.00 | 60 | 1015.4 |
| 20260508031003 | 10 | 247 | 0.0 | 6.4 | 0.00 | 0.00 | 0.00 | 59 | 1015.4 |
| 20260508030007 | 10 | 225 | 3.2 | 6.4 | 0.00 | 0.00 | 0.00 | 59 | 1015.1 |
| 20260508025503 | 10 | 202 | 0.0 | 6.4 | 0.00 | 0.00 | 0.00 | 59 | 1015.4 |
| 20260508025005 | 10 | 225 | 1.6 | 4.8 | 0.00 | 0.00 | 0.00 | 58 | 1015.4 |
| 20260508024502 | 10 | 225 | 1.6 | 4.8 | 0.00 | 0.00 | 0.00 | 57 | 1015.4 |
| 20260508024004 | 10 | 247 | 0.0 | 0.0 | 0.00 | 0.00 | 0.00 | 57 | 1015.4 |
| 20260508023003 | 11 | 247 | 0.0 | 6.4 | 0.00 | 0.00 | 0.00 | 55 | 1015.4 |
| 20260508022506 | 11 | 225 | 0.0 | 6.4 | 0.00 | 0.00 | 0.00 | 55 | 1015.4 |
| 20260508022008 | 11 | 225 | 3.2 | 6.4 | 0.00 | 0.00 | 0.00 | 56 | 1015.1 |
| 20260508021509 | 10 | 225 | 3.2 | 6.4 | 0.00 | 0.00 | 0.00 | 56 | 1015.4 |
| 20260508021003 | 11 | 202 | 3.2 | 4.8 | 0.00 | 0.00 | 0.00 | 57 | 1015.1 |
| 20260508020506 | 11 | 225 | 0.0 | 3.2 | 0.00 | 0.00 | 0.00 | 56 | 1015.4 |
| 20260508020003 | 11 | 225 | 0.0 | 6.4 | 0.00 | 0.00 | 0.00 | 55 | 1015.1 |
| 20260508015506 | 11 | 225 | 0.0 | 6.4 | 0.00 | 0.00 | 0.00 | 54 | 1015.1 |
| 20260508014504 | 11 | 225 | 3.2 | 4.8 | 0.00 | 0.00 | 0.00 | 53 | 1015.1 |
| 20260508014006 | 11 | 247 | 3.2 | 4.8 | 0.00 | 0.00 | 0.00 | 53 | 1015.1 |